EW5586 Weather Reports


time (UTC)temp
F
wind
direction
speed
knots
gust
knots
rain 1hr
in
rain 24hr
in
rain mn
in
humidity
%
barometer
mb
20260901131537 65 21 0.0 2.6 0.00 0.00 0.00 97 1015.1
20260901131031 65 355 0.0 2.6 0.00 0.00 0.00 97 1015.1
20260901130022 65 342 0.0 0.0 0.00 0.00 0.00 97 1014.9
20260901125007 65 24 0.0 0.0 0.00 0.00 0.00 97 1014.6
20260901123955 65 348 0.0 0.0 0.00 0.00 0.00 97 1013.7
20260901123449 65 292 0.0 1.7 0.00 0.00 0.00 97 1013.2
20260901122943 65 252 0.0 3.5 0.00 0.00 0.00 97 1012.9
20260901122439 65 229 0.0 3.5 0.00 0.00 0.00 97 1012.8
20260901121931 65 221 0.0 4.3 0.00 0.00 0.00 97 1013.5
20260901121428 65 179 0.9 4.3 0.00 0.00 0.00 97 1013.3
20260901120927 65 221 0.9 4.3 0.00 0.00 0.00 97 1013.8
20260901120428 65 199 0.9 4.3 0.00 0.00 0.00 97 1013.9
20260901115927 65 0 0.0 0.9 0.00 0.00 0.00 97 1014.0
20260901115434 65 345 0.0 0.0 0.00 0.00 0.00 97 1014.5
20260901114930 65 355 0.0 0.0 0.00 0.00 0.00 97 1015.1
20260901114427 65 355 0.0 0.0 0.00 0.00 0.00 97 1015.2
20260901113926 65 11 0.0 0.0 0.00 0.00 0.00 96 1015.4
20260901113426 0 0.0 0.0 0.00 0.00 0.00 1015.0
20260901112913 0 0.0 0.0 0.00 0.00 0.00 1014.8
20260901112328 0 0.0 0.0 0.00 0.00 0.00 1014.8
20260901111820 0 0.0 0.0 0.00 0.00 0.00 1014.9
20260901111228 0 0.0 0.0 0.00 0.00 0.00 1015.0
20260901110722 0 0.0 0.0 0.00 0.00 0.00 1014.8
20260901110216 0 0.0 0.0 0.00 0.00 0.00 1014.8
20260901105710 0 0.0 0.0 0.00 0.00 0.00 1014.7
20260901104626 0 0.0 0.0 0.00 0.00 0.00 1014.9
20260901104119 0 0.0 0.0 0.00 0.00 0.00 1014.8
20260901103523 0 0.0 0.0 0.00 0.00 0.00 1014.6
20260901103022 0 0.0 0.0 0.00 0.00 0.00 1015.3
20260901102520 0 0.0 0.0 0.00 0.00 0.00 1015.5
20260901101926 0 0.0 0.0 0.00 0.00 0.00 1015.0
20260901101329 0 0.0 0.0 0.00 0.00 0.00 1015.0
20260901100821 0 0.0 0.0 0.00 0.00 0.00 1015.1
20260901100319 0 0.0 0.0 0.00 0.00 0.00 1015.2
20260901095818 0 0.0 0.0 0.00 0.00 0.00 1015.2
20260901095220 0 0.0 0.0 0.00 0.00 0.00 1015.3
20260901094717 0 0.0 0.0 0.00 0.00 0.00 1015.4
20260901094122 0 0.0 0.0 0.00 0.00 0.00 1015.2
20260901093619 0 0.0 0.0 0.00 0.00 0.00 1015.1
20260901093019 0 0.0 0.0 0.00 0.00 0.00 1015.1
20260901091923 0 0.0 0.0 0.00 0.00 0.00 1015.5
20260901091417 0 0.0 0.0 0.00 0.00 0.00 1015.3
20260901090825 0 0.0 0.0 0.00 0.00 0.00 1015.2
20260901090326 0 0.0 0.0 0.00 0.00 0.00 1015.3
20260901085225 0 0.0 0.0 0.00 0.00 0.00 1015.2
20260901084725 0 0.0 0.0 0.00 0.00 0.00 1015.2
20260901084221 0 0.0 0.0 0.00 0.00 0.00 1015.0
20260901083624 0 0.0 0.0 0.00 0.00 0.00 1014.9
20260901083121 0 0.0 0.0 0.00 0.00 0.00 1014.9
20260901082022 0 0.0 0.0 0.00 0.00 0.00 1014.8
20260901081425 0 0.0 0.0 0.00 0.00 0.00 1014.8
20260901080923 0 0.0 0.0 0.00 0.00 0.00 1015.1
20260901080417 0 0.0 0.0 0.00 0.00 0.00 1015.5
20260901075829 0 0.0 0.0 0.00 0.00 0.00 1015.5
20260901075326 0 0.0 0.0 0.00 0.00 0.00 1015.5
20260901073730 66 190 0.0 3.5 0.00 0.00 0.00 95 1015.1
20260901073229 66 190 0.0 3.5 0.00 0.00 0.00 95 1015.2
20260901072723 66 190 0.0 0.0 0.00 0.00 0.00 95 1015.1
20260901071206 66 190 0.0 0.0 0.00 0.00 0.00 95 1015.3
20260901070659 66 190 0.0 0.0 0.00 0.00 0.00 95 1015.4
20260901070153 66 190 0.9 3.5 0.00 0.00 0.00 95 1015.3
20260901065647 66 190 0.9 3.5 0.00 0.00 0.00 95 1015.3
20260901064136 66 273 0.0 0.0 0.00 0.00 0.00 95 1015.4
20260901063633 66 273 0.0 0.0 0.00 0.00 0.00 95 1015.4
20260901063131 66 273 0.0 0.0 0.00 0.00 0.00 95 1015.4
20260901062629 66 273 0.0 0.0 0.00 0.00 0.00 95 1015.5
20260901062129 66 273 0.0 0.0 0.00 0.00 0.00 95 1015.5
20260901061629 66 273 0.0 0.0 0.00 0.00 0.00 94 1015.5
20260901061129 66 273 0.0 0.0 0.00 0.00 0.00 94 1015.6
20260901060627 66 273 0.0 0.0 0.00 0.00 0.00 94 1015.8
20260901055625 66 273 0.0 0.0 0.00 0.00 0.00 94 1015.7
20260901055125 66 273 0.0 0.0 0.00 0.00 0.00 94 1015.7
20260901054625 66 273 0.0 0.0 0.00 0.00 0.00 94 1015.9
20260901054125 66 273 0.0 0.0 0.00 0.00 0.00 94 1016.0
20260901053625 66 273 0.0 0.0 0.00 0.00 0.00 94 1016.2
20260901053125 67 273 0.0 0.0 0.00 0.00 0.00 93 1016.1
20260901052626 67 273 0.0 0.0 0.00 0.00 0.00 93 1016.2
20260901052121 67 273 0.0 0.0 0.00 0.00 0.00 93 1016.2
20260901051119 67 211 0.0 0.0 0.00 0.00 0.00 93 1016.1
20260901050119 67 211 0.0 1.7 0.00 0.00 0.00 93 1015.9
20260901045619 67 211 0.9 4.3 0.00 0.00 0.00 93 1016.0
20260901045120 67 196 0.9 4.3 0.00 0.00 0.00 93 1015.9
20260901044619 67 173 0.0 4.3 0.00 0.00 0.00 93 1015.8
20260901044119 68 165 0.0 0.0 0.00 0.00 0.00 93 1015.8
20260901043620 68 162 0.0 0.0 0.00 0.00 0.00 93 1015.8
20260901043118 68 161 0.0 0.0 0.00 0.00 0.00 93 1015.6
20260901042616 68 161 0.0 0.0 0.00 0.00 0.00 93 1015.7
20260901042115 68 161 0.0 0.0 0.00 0.00 0.00 94 1015.7
20260901041111 68 155 0.0 0.0 0.00 0.00 0.00 94 1015.9
20260901040611 67 155 0.0 0.0 0.00 0.00 0.00 94 1015.9
20260901040111 67 155 0.0 0.0 0.00 0.00 0.00 94 1016.0
20260901035611 67 155 0.0 0.0 0.00 0.00 0.00 94 1016.1
20260901034611 67 155 0.0 0.0 0.00 0.00 0.00 94 1016.2
20260901033611 67 155 0.0 0.0 0.00 0.00 0.00 94 1016.1
20260901033107 67 155 0.0 0.0 0.00 0.00 0.00 93 1016.1
20260901032607 67 155 0.0 0.0 0.00 0.00 0.00 94 1016.2
20260901031607 67 155 0.0 4.3 0.00 0.00 0.00 94 1016.2
20260901031106 67 155 0.0 4.3 0.00 0.00 0.00 94 1016.2
20260901030608 67 169 0.0 0.0 0.00 0.00 0.00 94 1016.3
20260901030108 67 265 0.0 0.0 0.00 0.00 0.00 93 1016.5
20260901025607 67 265 0.0 0.0 0.00 0.00 0.00 93 1016.4
20260901025107 67 265 0.0 0.0 0.00 0.00 0.00 93 1016.4
20260901024603 67 264 0.0 0.0 0.00 0.00 0.00 93 1016.3
20260901024103 68 264 0.0 0.0 0.00 0.00 0.00 93 1016.3
20260901023103 68 265 0.0 0.0 0.00 0.00 0.00 93 1016.5
20260901022603 68 265 0.0 0.0 0.00 0.00 0.00 92 1016.7
20260901022104 68 228 0.0 0.0 0.00 0.00 0.00 92 1016.6
20260901021603 68 224 0.0 0.0 0.00 0.00 0.00 93 1016.6
20260901021103 68 224 0.0 0.0 0.00 0.00 0.00 93 1016.5
20260901020603 68 342 0.0 0.0 0.00 0.00 0.00 92 1016.3
20260901020104 68 344 0.0 0.0 0.00 0.00 0.00 92 1016.3
20260901015603 68 344 0.0 0.0 0.00 0.00 0.00 92 1016.5
20260901014601 69 324 0.0 0.0 0.00 0.00 0.00 92 1016.6
20260901014100 69 208 0.0 0.0 0.00 0.00 0.00 92 1016.5
20260901013559 69 208 0.0 0.0 0.00 0.00 0.00 92 1016.5
20260901013059 69 208 0.0 0.9 0.00 0.00 0.00 93 1016.4
20260901012556 69 202 0.0 0.9 0.00 0.00 0.00 93 1016.4
20260901012057 69 324 0.0 0.0 0.00 0.00 0.00 92 1016.6
20260901011555 69 324 0.0 0.0 0.00 0.00 0.00 92 1016.6
20260901010554 69 312 0.0 0.0 0.00 0.00 0.00 92 1016.4
20260901010055 69 307 0.0 0.0 0.00 0.00 0.00 92 1016.5
20260901005553 69 307 0.0 0.0 0.00 0.00 0.00 92 1016.6
20260901005053 69 307 0.0 0.0 0.00 0.00 0.00 92 1016.8
20260901004549 69 306 0.0 0.0 0.00 0.00 0.00 92 1016.8
20260901004049 69 307 0.0 0.0 0.00 0.00 0.00 92 1016.9
20260901003549 69 307 0.0 0.0 0.00 0.00 0.00 91 1016.7
20260901003051 69 307 0.0 0.0 0.00 0.00 0.00 91 1016.4
20260901002549 69 306 0.0 0.0 0.00 0.00 0.00 91 1016.4
20260901002049 69 307 0.0 0.0 0.00 0.00 0.00 91 1016.4
20260901001549 69 307 0.0 0.0 0.00 0.00 0.00 91 1016.4
20260901000549 69 307 0.0 0.0 0.00 0.00 0.00 91 1016.5
20260901000045 69 306 0.0 0.0 0.00 0.00 0.00 91 1016.5
20260831235045 69 307 0.0 0.0 0.00 0.00 0.00 90 1016.5
20260831234545 69 307 0.0 0.0 0.00 0.00 0.00 90 1016.5
20260831234046 69 307 0.0 0.0 0.00 0.00 0.00 90 1016.5
20260831233545 69 307 0.0 0.0 0.00 0.00 0.00 89 1016.5
20260831233045 70 306 0.0 0.0 0.00 0.00 0.00 89 1016.5
20260831232545 70 303 0.0 0.0 0.00 0.00 0.00 89 1016.5
20260831232048 70 303 0.0 0.0 0.00 0.00 0.00 89 1016.6
20260831231541 70 303 0.0 0.0 0.00 0.00 0.00 89 1016.7
20260831231042 70 303 0.0 0.0 0.00 0.00 0.00 89 1016.8
20260831230537 70 303 0.0 0.0 0.00 0.00 0.00 89 1016.9
20260831230040 70 303 0.0 0.0 0.00 0.00 0.00 88 1016.9
20260831225537 70 303 0.0 0.0 0.00 0.00 0.00 89 1016.9
20260831224535 71 302 0.0 0.0 0.00 0.00 0.00 88 1016.9
20260831224035 71 302 0.0 0.0 0.00 0.00 0.00 88 1016.9
20260831223535 71 302 0.0 0.0 0.00 0.00 0.00 88 1016.8
20260831223032 71 302 0.0 0.0 0.00 0.00 0.00 88 1016.8
20260831222030 71 302 0.0 0.0 0.00 0.00 0.00 87 1016.8
20260831221529 71 302 0.0 0.0 0.00 0.00 0.00 87 1016.8
20260831221030 71 302 0.0 0.0 0.00 0.00 0.00 87 1016.8
20260831220528 71 302 0.0 0.0 0.00 0.00 0.00 87 1017.0
20260831220029 71 302 0.0 0.0 0.00 0.00 0.00 87 1017.0
20260831215520 71 302 0.0 0.0 0.00 0.00 0.00 87 1017.0
20260831215014 71 302 0.0 0.0 0.00 0.00 0.00 87 1017.0
20260831214508 71 302 0.0 0.0 0.00 0.00 0.00 87 1017.0
20260831214002 71 302 0.0 0.0 0.00 0.00 0.00 87 1017.0
20260831213456 71 302 0.0 0.0 0.00 0.00 0.00 87 1017.0
20260831212950 71 302 0.0 0.0 0.00 0.00 0.00 86 1017.0
20260831212444 71 302 0.0 0.0 0.00 0.00 0.00 86 1017.0
20260831211938 71 302 0.0 0.0 0.00 0.00 0.00 86 1017.1
20260831211432 71 302 0.0 0.0 0.00 0.00 0.00 86 1017.1
20260831210926 71 302 0.0 0.0 0.00 0.00 0.00 86 1017.2
20260831210420 71 302 0.0 0.0 0.00 0.00 0.00 86 1017.3
20260831205915 71 302 0.0 0.0 0.00 0.00 0.00 86 1017.3
20260831205408 71 302 0.0 0.0 0.00 0.00 0.00 86 1017.4
20260831204903 71 302 0.0 0.0 0.00 0.00 0.00 87 1017.4
20260831204356 71 302 0.0 0.0 0.00 0.00 0.00 87 1017.4
20260831203856 71 302 0.0 0.0 0.00 0.00 0.00 87 1017.5
20260831203355 71 302 0.0 0.0 0.00 0.00 0.00 88 1017.4
20260831202853 71 302 0.0 0.0 0.00 0.00 0.00 88 1017.5
20260831202351 71 302 0.0 0.0 0.00 0.00 0.00 88 1017.4
20260831201348 71 302 0.0 0.0 0.00 0.00 0.00 89 1017.5
20260831200850 71 302 0.0 0.0 0.00 0.00 0.00 89 1017.5
20260831200346 71 302 0.0 0.0 0.00 0.00 0.00 89 1017.6
20260831195847 71 302 0.0 0.0 0.00 0.00 0.00 90 1017.7
20260831194842 71 246 0.0 0.0 0.00 0.00 0.00 90 1017.7
20260831194343 71 246 0.0 0.0 0.00 0.00 0.00 90 1017.8
20260831193841 71 246 0.0 0.0 0.00 0.00 0.00 90 1017.8
20260831193340 71 246 0.0 0.0 0.00 0.00 0.00 90 1017.9
20260831192340 71 244 0.0 0.9 0.00 0.00 0.00 89 1017.9
20260831191841 71 242 0.0 0.9 0.00 0.00 0.00 89 1018.0
20260831191339 71 201 0.0 3.5 0.00 0.00 0.00 89 1017.9
20260831190837 71 183 0.9 4.3 0.00 0.00 0.00 88 1017.9
20260831190336 71 188 0.9 4.3 0.00 0.00 0.00 87 1018.0
20260831185831 71 170 0.0 3.5 0.00 0.00 0.00 87 1018.0
20260831185325 71 196 0.9 1.7 0.00 0.00 0.00 87 1018.0
20260831184313 71 164 0.0 0.0 0.00 0.00 0.00 87 1018.2
20260831183806 71 167 0.0 0.0 0.00 0.00 0.00 87 1018.3
20260831183300 71 167 0.0 0.0 0.00 0.00 0.00 87 1018.3
20260831182757 71 166 0.0 0.0 0.00 0.00 0.00 87 1018.3
20260831182248 71 177 0.0 0.0 0.00 0.00 0.00 87 1018.4
20260831181742 71 180 0.0 0.0 0.00 0.00 0.00 88 1018.5
20260831181236 71 183 0.0 0.0 0.00 0.00 0.00 88 1018.5
20260831180730 71 221 0.0 4.3 0.00 0.00 0.00 88 1018.5
20260831175718 71 163 1.7 5.2 0.00 0.00 0.00 88 1018.5
20260831175212 71 211 1.7 5.2 0.00 0.00 0.00 88 1018.5
20260831174706 71 208 3.5 6.1 0.00 0.00 0.00 88 1018.5
20260831174159 71 151 4.3 9.6 0.00 0.00 0.00 88 1018.5
20260831173654 71 163 5.2 9.6 0.00 0.00 0.00 86 1018.5
20260831173148 72 222 3.5 9.6 0.00 0.00 0.00 85 1018.6
20260831172643 73 217 0.9 4.3 0.00 0.00 0.00 82 1018.6
20260831172137 73 186 0.9 2.6 0.00 0.00 0.00 81 1018.5
20260831171630 73 0 0.0 0.0 0.00 0.00 0.00 81 1018.6
20260831170618 74 182 0.9 3.5 0.00 0.00 0.00 80 1018.7
20260831170113 74 197 0.0 2.6 0.00 0.00 0.00 80 1018.7
20260831165605 74 199 0.0 0.9 0.00 0.00 0.00 79 1018.9
20260831164554 74 209 1.7 3.5 0.00 0.00 0.00 79 1018.9
20260831164048 74 213 0.9 3.5 0.00 0.00 0.00 79 1018.9
20260831163545 74 191 0.9 4.3 0.00 0.00 0.00 79 1018.8
20260831163037 74 214 1.7 4.3 0.00 0.00 0.00 80 1018.9
20260831162530 74 194 0.9 4.3 0.00 0.00 0.00 81 1019.0
20260831162024 74 198 0.9 3.5 0.00 0.00 0.00 81 1019.0
20260831161518 74 211 1.7 3.5 0.00 0.00 0.00 81 1019.0
20260831160507 74 210 3.5 4.3 0.00 0.00 0.00 81 1019.0
20260831160002 73 217 2.6 4.3 0.00 0.00 0.00 82 1019.1
20260831155500 73 204 1.7 4.3 0.00 0.00 0.00 82 1019.1
20260831154000 73 213 2.6 4.3 0.00 0.00 0.00 84 1019.2
20260831153501 72 192 1.7 4.3 0.00 0.00 0.00 85 1019.2
20260831153000 72 196 0.9 3.5 0.00 0.00 0.00 85 1019.3
20260831152500 72 194 0.9 3.5 0.00 0.00 0.00 85 1019.3
20260831151958 72 176 0.9 3.5 0.00 0.00 0.00 85 1019.3
20260831151457 72 177 0.9 3.5 0.00 0.00 0.00 86 1019.4
20260831150956 71 182 0.0 2.6 0.00 0.00 0.00 86 1019.3
20260831150456 71 238 0.0 0.0 0.00 0.00 0.00 87 1019.3
20260831145956 71 238 0.0 0.0 0.00 0.00 0.00 88 1019.2
20260831145454 71 238 0.0 0.0 0.00 0.00 0.00 89 1019.3
20260831144953 70 238 0.0 0.9 0.00 0.00 0.00 90 1019.3
20260831144452 70 238 0.0 0.9 0.00 0.00 0.00 93 1019.3
20260831143952 69 238 0.0 0.9 0.00 0.00 0.00 93 1019.3
20260831143453 69 238 0.0 0.9 0.00 0.00 0.00 93 1019.4
20260831142946 69 238 0.0 0.0 0.00 0.00 0.00 94 1019.3
20260831142446 68 238 0.0 0.0 0.00 0.00 0.00 94 1019.4
20260831141946 68 182 0.0 1.7 0.00 0.00 0.00 95 1019.4
20260831141446 68 182 0.0 1.7 0.00 0.00 0.00 96 1019.4
20260831140946 68 182 0.0 0.0 0.00 0.00 0.00 96 1019.4
20260831140448 68 182 0.0 0.0 0.00 0.00 0.00 96 1019.4
20260831135947 67 182 0.0 0.0 0.00 0.00 0.00 97 1019.4
20260831135444 67 182 0.0 0.0 0.00 0.00 0.00 97 1019.4
20260831134943 67 182 0.0 0.0 0.00 0.00 0.00 97 1019.4
20260831134442 66 182 0.0 0.0 0.00 0.00 0.00 97 1019.2
20260831133442 66 182 0.9 3.5 0.00 0.00 0.00 97 1019.3
20260831132942 66 183 0.9 4.3 0.00 0.00 0.00 97 1019.3